Skip Page Navigation
NASA JPL Caltech
NASA Logo - Jet Propulsion Laboratory + View the NASA Portal
+ Center for Near-Earth Object Studies
JPL Home Earth Solar System Stars & Galaxies Technology
JPL Solar System Dynamics
BODIES ORBITS EPHEMERIDES TOOLS PHYSICAL DATA DISCOVERY FAQ SITE MAP
JPL Small-Body Database Browser
Search: [ help ]  
212130 (2005 ET222)
Classification: Main-belt Asteroid          SPK-ID: 2212130
Ephemeris | Orbit Diagram | Orbital Elements | Mission Design | Physical Parameters | Discovery Circumstances ]

[ show orbit diagram ]
Orbital Elements at Epoch 2459000.5 (2020-May-31.0) TDB
Reference: JPL 20 (heliocentric ecliptic J2000)
 Element Value Uncertainty (1-sigma)   Units 
e .1082779289200793 4.5628e-08  
a 2.553504462382334 2.1132e-08 au
q 2.277016287707394 1.2374e-07 au
i 12.92693299650221 4.631e-06 deg
node 105.3992670954097 2.1922e-05 deg
peri 93.39103176609855 3.3851e-05 deg
M 246.4561370822803 2.9781e-05 deg
tp 2459470.572151743692
(2021-Sep-13.07215174)
0.00012681 TDB
period 1490.401773192795
4.08
1.8501e-05
5.065e-08
d
yr
n .2415456063426404 2.9984e-09 deg/d
Q 2.829992637057273 2.342e-08 au
  Orbit Determination Parameters
   # obs. used (total)      409  
   data-arc span      6876 days (18.83 yr)  
   first obs. used      2001-03-25  
   last obs. used      2020-01-21  
   planetary ephem.      DE431  
   SB-pert. ephem.      SB431-N16  
   condition code      0  
   norm. resid. RMS      .51677  
   source      ORB  
   producer      Otto Matic  
   solution date      2020-Feb-25 02:42:13  

Additional Information
 Earth MOID = 1.31803 au 
 Jupiter MOID = 2.2568 au 
 T_jup = 3.395 
[ show covariance matrix ]

Ephemeris | Orbit Diagram | Orbital Elements | Mission Design | Physical Parameters | Discovery Circumstances ]

Physical Parameter Table
Parameter Symbol Value Units Sigma Reference Notes
absolute magnitude H 16.0   n/a MPO454522  

212130 (2005 ET222)          Discovered 2005-Mar-08 by LINEAR at Socorro
Reference: 20090409/Numbers.arcLast Updated: 2009-04-10
Ephemeris | Orbit Diagram | Orbital Elements | Mission Design | Physical Parameters | Discovery Circumstances ]
ABOUT SSD CREDITS/AWARDS PRIVACY/COPYRIGHT GLOSSARY LINKS
FirstGov 2020-Jul-11 09:14 UT
(server date/time)  
NASA Home Page
Site Manager:   Ryan S. Park
Webmaster  Alan B. Chamberlin